#timestamp,LO_Frequency,Hit,StdDev 
1553007615.0,286046995.2,P
1553007615.9,286046995.2,Y
1553007635.8,286047002.3,P
1553007655.6,286046999.8,N
1553007675.5,286046999.7,N
1553007695.3,286047000.1,N
1553007715.1,286046998.3,N
1553007735.9,286046999.3,N
1553007755.7,286046998.0,N
1553007775.5,286046994.9,N
1553007795.4,286046993.8,N
1553007815.2,286046994.9,N
1553007835.0,286046995.3,N
1553007836.0,286046995.3,N
1553007855.8,286046995.4,N
1553007875.6,286046995.0,N
1553007895.5,286046995.2,N
1553007915.3,286046997.8,N
1553007935.1,286046999.2,N
1553007955.9,286046998.9,N
1553007975.7,286047000.6,N
1553007995.5,286047000.7,N
1553008015.4,286046999.0,N
1553008035.2,286046999.9,N
1553008055.1,286047001.8,N
1553008056.0,286047001.8,N
1553008075.8,286047001.5,N
1553008095.6,286047003.7,N
1553008115.5,286047005.7,N
1553008135.3,286047007.6,N
1553008155.1,286047004.6,N
1553008175.9,286047007.3,N
1553008195.7,286047007.8,N
1553008215.6,286047010.7,N
1553008235.4,286047009.5,N
1553008255.2,286047009.7,N
1553008275.1,286047009.5,N
1553008276.0,286047009.5,N
1553008295.8,286047010.2,N
1553008315.6,286047011.5,N
1553008335.5,286047015.5,N
1553008355.3,286047014.8,N
1553008375.2,286047016.3,N
1553008395.9,286047016.3,N
1553008415.7,286047014.9,N
1553008435.6,286047012.8,N
1553008455.4,286047010.9,N
1553008475.2,286047009.3,N
1553008495.1,286047008.3,N
1553008496.0,286047008.3,N
1553008515.8,286047005.1,N
1553008535.6,286047005.9,N
1553008555.5,286047002.3,N
1553008575.3,286046999.3,N
1553008595.2,286046998.7,N
1553008615.9,286046998.9,N
1553008635.7,286046998.2,N
1553008655.6,286047000.4,N
1553008675.4,286047002.2,N
1553008695.3,286047001.5,N
1553008715.1,286047003.5,N
1553008716.0,286047003.5,N
1553008735.8,286047001.4,N
1553008755.7,286047003.6,N
1553008775.5,286047001.7,N
1553008795.3,286047002.9,N
1553008815.2,286047003.2,N
1553008835.0,286047003.1,N
1553008835.9,286047003.1,N
1553008855.8,286047005.5,N
1553008875.6,286047007.6,N
1553008895.4,286047009.1,N
1553008915.3,286047007.1,N
1553008935.1,286047007.3,N
1553008955.8,286047004.6,N
1553008975.7,286047006.2,N
1553008995.5,286047006.1,N
1553009015.4,286047009.1,N
1553009035.2,286047008.2,N
1553009055.0,286047010.6,Y
1553009055.9,286047010.6,P
1553009075.8,286047003.1,N
1553009095.6,286047003.8,N
1553009115.4,286047002.0,N
1553009135.3,286047001.9,N
1553009155.1,286047000.3,N
1553009175.9,286047002.7,N
1553009195.7,286047005.5,N
1553009215.5,286047003.8,N
1553009235.4,286047003.5,N
1553009255.2,286047005.9,N
1553009275.0,286047006.8,N
1553009275.9,286047006.8,N
1553009295.8,286047010.6,Y
1553009315.6,286047005.5,P
1553009335.5,286047007.1,P
1553009355.3,286047009.5,P
1553009375.1,286047010.1,Y
1553009395.9,286047004.8,P
1553009415.7,286047003.1,P
1553009435.6,286047001.5,N
1553009455.4,286047002.5,N
1553009475.2,286047002.7,N
1553009495.1,286046999.5,N
1553009496.0,286046999.5,N
1553009515.8,286046998.4,N
1553009535.6,286046995.1,N
1553009555.5,286046997.4,N
1553009575.3,286046997.8,N
1553009595.2,286047000.9,N
1553009615.9,286047002.6,N
1553009635.7,286047002.2,N
1553009655.6,286046999.9,N
1553009675.4,286047000.0,N
1553009695.2,286047000.6,N
1553009715.1,286047000.7,N
1553009716.0,286047000.7,N
1553009735.8,286047000.3,N
1553009755.7,286047004.0,N
1553009775.5,286047001.4,N
1553009795.3,286047004.3,N
1553009815.2,286046999.7,N
1553009835.0,286047000.2,N
1553009835.9,286047000.2,N
1553009855.7,286047001.2,N
1553009875.6,286046996.7,N
1553009895.4,286046996.8,N
1553009915.3,286046997.9,N
1553009935.1,286046997.7,N
1553009936.0,286046997.7,N
1553009955.8,286046999.4,N
1553009975.7,286046995.8,N
1553009995.5,286046994.6,N
1553010015.3,286046992.3,Y
1553010035.2,286046991.8,P
1553010055.0,286046991.7,N
1553010055.9,286046991.7,N
1553010075.8,286046990.5,N
1553010095.6,286046990.5,N
1553010115.4,286046988.5,Y
1553010135.3,286046993.6,P
1553010155.1,286046993.5,P
1553010175.9,286046996.4,P
1553010195.7,286046994.5,Y
1553010215.5,286046998.2,P
1553010235.4,286046999.8,N
1553010255.2,286047000.0,N
1553010275.0,286047002.8,N
1553010275.9,286047002.8,N
1553010295.8,286047002.3,N
1553010315.6,286047001.9,N
1553010335.5,286047004.3,N
1553010355.3,286047005.9,N
1553010375.1,286047005.2,N
1553010395.9,286047006.9,N
1553010415.7,286047004.5,N
1553010435.5,286047005.0,N
1553010455.4,286047006.5,N
1553010475.2,286047006.1,N
1553010495.1,286047010.7,Y
1553010496.0,286047010.7,P
1553010515.8,286047005.2,N
1553010535.6,286047005.9,N
1553010555.5,286047005.1,N
1553010575.3,286047005.2,N
1553010595.1,286047004.9,N
1553010615.9,286047006.4,N
1553010635.7,286047008.7,Y
1553010655.6,286047004.2,P
1553010675.4,286047002.0,N
1553010695.2,286047004.1,N
1553010715.1,286047004.1,Y
1553010716.0,286047004.1,P
1553010735.8,286046999.8,P
1553010755.6,286047000.0,N
1553010775.5,286047002.6,N
1553010795.3,286047002.2,N
1553010815.2,286047002.2,N
1553010835.9,286047000.9,N
1553010855.7,286047003.1,N
1553010875.6,286047004.1,N
1553010895.4,286047001.5,N
1553010915.2,286047001.8,N
1553010935.1,286047003.5,N
1553010936.0,286047003.5,N
1553010955.8,286047003.3,N
1553010975.7,286047005.5,Y
1553010995.5,286046999.8,P
1553011015.3,286047000.9,N
1553011035.2,286046998.7,N
1553011055.0,286046998.8,N
1553011055.9,286046998.8,N
1553011075.7,286047001.2,N
1553011095.6,286047000.5,N
1553011115.4,286047002.7,N
1553011135.3,286047000.8,N
1553011155.1,286046998.1,N
1553011156.0,286046998.1,N
1553011175.8,286046999.9,N
1553011195.7,286046998.2,N
